Starlink 33611

operational
NORAD ID: 63279 Int'l Des: 2025-053 Owner: SPXS Country: US Constellation: starlink
LEOCIRCULAR

关于 Starlink 33611

正在加载描述...

实时位置

正在加载3D地球...

即将过境

高度历史

Altitude vs Time

uPlot chart will show altitude changes over time

两行轨道根数

1 63279U 25053Q 25353.97132161 .00012732 00000-0 47127-3 0 9999
2 63279 43.0046 328.3396 0002569 284.5171 75.5396 15.27588147 44157
Epoch: Dec 19, 2025 • Age: 14 hours

当前状态

高度 494.0 km
速度 7.62 km/s
星下点 -40.97°S, 70.99°W
发射日期 Mar 15, 2025
运行时间 0.7 years
类型 internet

技术详情

分类 Payload
质量 575.00 kg
干质量 530.00 kg
总质量 575.00 kg
长度 0.30 m
直径 4.10 m
跨度 29.00 m
形状 Box + pan
制造商 SPXS
平台类型 Starlink V2MO
阶段状态 In Orbit
所有者/国家 SPXS/US

大型星座

Loading constellations...